User: anonymous   Login
Location: Crab Orchard
(37.7292°N, 88.8042°W)
Time: 01:57:56
(UTC+00:00)
Language:

Meteor 1-27 Rocket - Orbit

View from above orbital plane
View from above orbital plane
View from above satellite
View from above satellite

Ground track
Ground track

The orbit data is extracted from the following two-line orbital elements,

1  9904U 77024B   20047.73146343  .00000016  00000-0  16236-5 0  9996
2  9904  81.2605 268.1419 0056080 103.8230 256.9188 14.06888868199839
Epoch (UTC): 16 February 2020 17:33:18
Eccentricity: 0.0056080
inclination: 81.2605°
perigee height: 829 km
apogee height: 910 km
right ascension of ascending node: 268.1419°
argument of perigee: 103.8230°
revolutions per day: 14.06888868
mean anomaly at epoch: 256.9188°
orbit number at epoch: 19983

The dashed part of the orbit path shows where the satellite is in the earth's shadow,  

DLR